Location: Antioch Baptist Church
(32.6696°N, 85.7327°W)
Time: 12:25:49
(UTC+00:00)

Geosat - Pass Details

Date: 14 July 2020
Orbit: 763 x 766 km, 108.0° (Epoch: 08 August)

Event Time Altitude Azimuth Distance (km) Brightness Sun altitude
Exits shadow 02:55:58 51° 138° (SE) 954 4.0 -21.8°
Maximum altitude 02:57:14 78° 65° (ENE) 785 3.9 -22.0°
Drops below altitude 10° 03:02:15 10° 339° (NNW) 2,305 7.4 -22.7°
Sets 03:04:32 0° 338° (NNW) 3,235 8.4 -23.0°
